Portada
METAR-TAF:

METAR-TAF

Aeroports :

Araxá, Minas Gerais, Brasil

latitud: 19-33-38S, longitud: 046-57-56W, altitud: 999 m

Observació

L'informe es va fer fa 29 minuts, a les 18:00 UTC
Vent 7 kt del Oest/Nord-Oest, variant entre Oest i Nord
Temperatura 30°C
Humitat 40%
Pressió 1011 hPa
Visibilitat 10 km o més
sense núvols per sota de 1500 mi sense presència de cumulonimbus.

METAR: SBAX 171800Z AUTO 30007KT 260V350 CAVOK 30/15 Q1011

Hora: 16:29 (18:29 UTC)


TAF: manca

Observacions i pronòstics meteorològics de més de 4000 aeroports (METAR i TAF).

Les estacions disponibles són els punts grocs i vermells al mapa.

Posi el ratolí al punt desitjat per veure el nom de l'estació.

Feu clic per veure les observacions i els pronòstics meteorològics.

Per canviar el mapa: feu clic els botons verds amb una creu de color negre per apropar; al botó verd amb un guió per allunyar la imatge; o en les fletxes verdes per a mapes adjacents.


METAR-TAF: